Regional Weather Roundup
Issued by NWS Green Bay, WI

Home | Current Version | Previous Version | Graphics & Text | Print | Product List | Glossary Off
Versions: 1 2 3 4 5 6 7 8 9 10 11 12 13 14 15 16 17 18 19 20 21 22 23 24 25 26 27 28 29 30 31 32 33 34 35 36 37 38 39 40 41 42 43 44 45 46 47 48 49 50

000
ASUS43 KGRB 271059
RWRGRB

NORTH-CENTRAL AND NORTHEAST WISCONSIN REGIONAL WEATHER ROUNDUP
NATIONAL WEATHER SERVICE GREEN BAY WI
500 AM CST THU NOV 27 2014

WIZ005-009-010>012-018-019-271200-
NORTH CENTRAL WISCONSIN

CITY           SKY/WX    TMP DP  RH WIND       PRES   REMARKS
IRONWOOD       CLOUDY    10   7  85 NW8       30.30R WCI  -1
MANITOWISH WTR NOT AVBL
ARBOR VITAE    NOT AVBL
EAGLE RIVER    NOT AVBL
LAND O LAKES   NOT AVBL
RHINELANDER    CLOUDY     8   4  83 NW5       30.26R WCI   0
PHILLIPS       NOT AVBL
ANTIGO         NOT AVBL
TOMAHAWK       NOT AVBL
MERRILL        NOT AVBL
$$

WIZ013-073-271200-
NORTHEAST WISCONSIN

CITY           SKY/WX    TMP DP  RH WIND       PRES   REMARKS
IRON MOUNTAIN  PTCLDY    10   4  76 NW7       30.24R WCI  -1
MARINETTE      CLOUDY    19  10  68 N13       30.24S WCI   7
$$

WIZ017-030-035>037-045-271200-
CENTRAL WISCONSIN

CITY           SKY/WX    TMP DP  RH WIND       PRES   REMARKS
MEDFORD        NOT AVBL
WAUSAU         LGT SNOW  13   8  81 NW10      30.27R WCI   0
MOSINEE        NOT AVBL
MARSHFIELD     LGT SNOW  14   8  77 NW15      30.29R WCI  -1
WISC RAPIDS    CLOUDY    16   8  71 N12       30.31R WCI   3
STEVENS POINT  NOT AVBL
WAUPACA        NOT AVBL
SHAWANO        NOT AVBL
CLINTONVILLE   NOT AVBL
$$

WIZ038-039-048-051-271200-
FOX VALLEY

CITY           SKY/WX    TMP DP  RH WIND       PRES   REMARKS
NWS GREEN BAY  LGT SNOW  22  18  85 N14       30.26R FOG     WCI   9
APPLETON       NOT AVBL
OSHKOSH        CLOUDY    22  17  81 MISG      30.25R
FOND DU LAC    FLURRIES  22  17  81 NW12      30.25R
$$

WIZ022-050-052-271200-
EAST CENTRAL WISCONSIN

CITY           SKY/WX    TMP DP  RH WIND       PRES   REMARKS
STURGEON BAY   CLOUDY    21  16  79 N16       30.23R WCI   7
MANITOWOC      NOT AVBL
SHEBOYGAN      CLOUDY    23  18  81 NW12      30.22R
$$

LMZ563-521-522-541>543-271200-
LAKESHORE

STATION/POSITION TIME  TEMP    WIND        PRES    VSBY  WAVE
                       AIR SEA DIR/SP/G                  HT/PER
                 (UTC) (F)     (DEG/KT/KT) (MB)    (MI)  (FT/S)
SHEBOYGAN LKSHOR 1000   24 36  310/ 11/ 16 1024.4R
KEWAUNEE LKSHORE 1000   23     330/ 12/ 16 1022.3R
NORTHPORT PIER   1000   24     330/ 22/ 26 1023.0R
N MID LAKE BUOY  1000   27 42  340/ 23/ 27 1022.5R         4/ 5
SISTER BAY LKSHO 1000          340/ 27/ 33   N/A
CHAMBERS ISLAND  1000   23     310/ 19/ 22 1024.0R
MENOMINEE LKSHOR 1000   21     310/ 17/ 21 1024.6R
$$


USA.gov is the U.S. government's official web portal to all federal, state and local government web resources and services.